User: anonymous   Login
Location: Brno
(49.2000°N, 16.6330°E)
Time: 12:27:26
(UTC+02:00)
Language:

BREEZE M DEB (TANK) - Orbit

View from above orbital plane
View from above orbital plane
View from above satellite
View from above satellite

Ground track
Ground track

The orbit data is extracted from the following two-line orbital elements,

1 28359U 04022B   17111.29565551 +.00003131 +00000-0 +43232-3 0  9999
2 28359 049.5152 103.5467 4662179 179.8096 180.6033 06.19961906281757
Epoch (UTC): 21 April 2017 07:05:44
Eccentricity: 0.4662179
inclination: 49.5152°
perigee height: 303 km
apogee height: 11974 km
right ascension of ascending node: 103.5467°
argument of perigee: 179.8096°
revolutions per day: 6.19961906
mean anomaly at epoch: 180.6033°
orbit number at epoch: 28175

The dashed part of the orbit path shows where the satellite is in the earth's shadow,  

DLR